Regional Weather Roundup
Issued by NWS

Home | Current Version | Previous Version | Graphics & Text | Print | Product List | Glossary On
Versions: 1 2 3 4 5 6 7 8 9 10 11 12 13 14 15 16 17 18 19 20 21 22 23 24 25 26 27 28 29 30 31 32 33 34 35 36 37 38 39 40 41 42 43 44 45 46 47 48 49 50
000
ASUS43 KLMK 180202
RWRKY
KENTUCKY REGIONAL WEATHER ROUNDUP
NATIONAL WEATHER SERVICE LOUISVILLE KY
900 PM EST SAT FEB 17 2018

NOTE "FAIR" INDICATES FEW OR NO CLOUDS BELOW 12,000 FEET
WITH NO SIGNIFICANT WEATHER AND/OR OBSTRUCTIONS TO VISIBILITY.

KYZ001>023-026-027-061>063-070>075-180300-
WESTERN AND SOUTH CENTRAL KENTUCKY

CITY           SKY/WX    TMP DP  RH WIND       PRES   REMARKS
PADUCAH        NOT AVBL
HENDERSON      CLOUDY    42  39  89 W9        30.20R
OWENSBORO      CLOUDY    42  39  89 W9        30.19R
HOPKINSVILLE   CLOUDY    45  43  94 W13       30.20R
BOWLING GREEN  NOT AVBL
GLASGOW        NOT AVBL
$$

KYZ024-025-028>034-038-045-046-053-180300-
NORTH CENTRAL KENTUCKY

CITY           SKY/WX    TMP DP  RH WIND       PRES   REMARKS
LOUISVILLE/SDF DRIZZLE   40  38  93 W10       30.14R WCI  33
LOUISVILLE/LOU CLOUDY    39  39 100 W7        30.14R FOG     WCI  34
FORT KNOX      CLOUDY    40  40  99 SW12      30.15R FOG     WCI  34
$$

KYZ035>037-039>044-047>052-055>060-089>105-180300-
NORTHEAST KENTUCKY

CITY           SKY/WX    TMP DP  RH WIND       PRES   REMARKS
LEXINGTON      CLOUDY    40  37  89 SW12      30.12R FOG     WCI  33
COVINGTON      SNOW      34  34 100 SW10      30.06S VSB 1/2 WCI  26
FRANKFORT      CLOUDY    39  36  89 SW8       30.10R FOG     WCI  33
$$

KYZ054-064>069-076>088-106>120-180300-
SOUTHEAST KENTUCKY

CITY           SKY/WX    TMP DP  RH WIND       PRES   REMARKS
JACKSON        FOG       40  39  97 SW8       30.10R VSB 3/4 WCI  34
LONDON         CLOUDY    44  42  93 W9        30.13R
SOMERSET       CLOUDY    43  43 100 W9        30.17R
MIDDLESBORO    CLOUDY    47  47  99 CALM      30.13R
MONTICELLO     NOT AVBL
$$





USA.gov is the U.S. government's official web portal to all federal, state and local government web resources and services.